Regional Weather Roundup
Issued by NWS

Home | Current Version | Previous Version | Text Only | Print | Product List | Glossary On
Versions: 1 2 3 4 5 6 7 8 9 10 11 12 13 14 15 16 17 18 19 20 21 22 23 24 25 26 27 28 29 30 31 32 33 34 35 36 37 38 39 40 41 42 43 44 45 46 47 48 49 50
552
ASUS45 KSLC 100510
RWRUT

UTAH REGIONAL WEATHER ROUNDUP
NATIONAL WEATHER SERVICE SALT LAKE CITY UT
1000 PM MST TUE FEB 09 2016

UTZ001>011-023>025-100600-

NORTHERN UTAH

CITY           SKY/WX    TMP DP  RH WIND       PRES   REMARKS
BRIGHAM CITY   PTCLDY    18  15  89 CALM      30.49R
HILL AFB       CLEAR     29  21  73 SE2       30.46S
LOGAN          FOG        5   4  95 W7        30.49R VSB 1/4 WCI  -7
OGDEN          CLEAR     28  24  85 NW3       30.47R
PROVO AIRPORT    N/A     18  14  86 CALM      30.48S VSB<1/4
SALT LAKE CITY PTCLDY    29  26  89 NW3       30.47S FOG
VERNAL         CLOUDY    15  10  80 W5        30.51R HAZE    WCI   8
WENDOVER       CLOUDY    32  27  80 CALM      30.50S
HEBER CITY     PTCLDY    12   9  85 CALM      30.46F
WEST JORDAN    CLEAR     28  27  93 CALM      30.47S

$$

UTZ012>022-026-027-100600-

SOUTHERN/CENTRAL UTAH

CITY           SKY/WX    TMP DP  RH WIND       PRES   REMARKS
BLANDING       CLEAR     31  22  71 NE3       30.48R
BRYCE CANYON   PTCLDY    22  13  68 W13       30.49S WCI  10
CEDAR CITY     PTCLDY    25  21  85 SE3       30.44S
DELTA            N/A     12  11  93 W5        30.48S VSB 1/4 WCI   4
HANKSVILLE     PTCLDY    32  28  86 CALM      30.49S
MILFORD        MOCLDY    11   7  84 S3        30.47S FOG
MOAB/CYNLANDS  PTCLDY    24  20  84 CALM      30.46S
PRICE          PTCLDY    25  19  78 NE7       30.44F WCI  17
ST GEORGE      PTCLDY    52  27  37 N8        30.36F
KANAB          CLEAR     41  28  60 N13       30.43S

$$

REGIONAL REPORTS     COLORADO/ARIZONA

CITY           SKY/WX    TMP DP  RH WIND       PRES   REMARKS
CRAIG, CO      CLOUDY     5   1  83 CALM      30.48R
GRAND JUNCTION CLOUDY    26  22  84 E6        30.46R WCI  19
RIFLE          CLOUDY    23  15  71 SW3       30.49R
MONTROSE       CLOUDY    24  17  74 SE8       30.50R WCI  15
CORTEZ         CLOUDY    25  20  81 NE9       30.41R WCI  15
PAGE, AZ       CLEAR     40  26  57 CALM      30.42R
GRAND CANYON   PTCLDY    31  21  66 NE7       30.44S WCI  24
KINGMAN        CLEAR     47  25  42 E10       30.29S
FLAGSTAFF      CLEAR     27  15  61 CALM      30.44R

$$

REGIONAL REPORTS    NEVADA/IDAHO/WYOMING

CITY           SKY/WX    TMP DP  RH WIND       PRES   REMARKS
LAS VEGAS, NV  CLEAR     60  28  29 W6        30.23R
ELY            PTCLDY    15  10  80 S10       30.45R WCI   2
ELKO           MOCLDY    17  14  88 E6        30.45S WCI   9
POCATELLO, ID  CLOUDY    20  19  96 CALM      30.46S
BURLEY         CLEAR     28  25  88 NE8       30.39S WCI  20
EVANSTON, WY   CLOUDY    30  21  69 S6        30.44F WCI  24
ROCK SPRINGS   CLOUDY    31  20  63 W8        30.40S WCI  23

$$




USA.gov is the U.S. government's official web portal to all federal, state and local government web resources and services.